Time,TemperatureF,DewpointF,PressureIn,WindDirection,WindDirectionDegrees,WindSpeedMPH,WindSpeedGustMPH,Humidity,HourlyPrecipIn,Conditions,Clouds,dailyrainin,SolarRadiationWatts/m^2,SoftwareType,DateUTC
2013-01-26 00:00:00,25.2,23.5,30.17,SW,234,1.0,5.0,93,0.00,,,0.00,0,WeatherCatV1.10B1570,2013-01-26 05:00:00,
2013-01-26 00:05:00,25.2,23.7,30.17,SW,228,0.0,0.0,94,0.00,,,0.00,0,WeatherCatV1.10B1570,2013-01-26 05:05:00,
2013-01-26 00:10:00,25.3,23.8,30.18,SW,224,0.0,3.0,94,0.00,,,0.00,0,WeatherCatV1.10B1570,2013-01-26 05:10:00,
2013-01-26 00:15:00,25.2,23.7,30.17,West,274,2.0,4.0,94,0.00,,,0.00,0,WeatherCatV1.10B1570,2013-01-26 05:15:00,
2013-01-26 00:20:00,25.2,23.7,30.17,SW,232,0.0,3.0,94,0.00,,,0.00,0,WeatherCatV1.10B1570,2013-01-26 05:20:00,
2013-01-26 00:25:00,25.2,23.7,30.17,SSW,207,2.0,3.0,94,0.00,,,0.00,0,WeatherCatV1.10B1570,2013-01-26 05:25:00,
2013-01-26 00:30:00,25.3,23.8,30.17,SW,228,2.0,3.0,94,0.00,,,0.00,0,WeatherCatV1.10B1570,2013-01-26 05:30:00,
2013-01-26 00:35:00,25.3,23.8,30.17,WSW,250,1.0,2.0,94,0.00,,,0.00,0,WeatherCatV1.10B1570,2013-01-26 05:35:00,
2013-01-26 00:40:00,25.2,23.7,30.17,WNW,282,7.0,7.0,94,0.00,,,0.00,0,WeatherCatV1.10B1570,2013-01-26 05:40:00,
2013-01-26 00:45:00,25.2,23.7,30.17,West,263,2.0,3.0,94,0.00,,,0.00,0,WeatherCatV1.10B1570,2013-01-26 05:45:00,
2013-01-26 00:50:00,25.2,23.7,30.17,WNW,284,2.0,3.0,94,0.00,,,0.00,0,WeatherCatV1.10B1570,2013-01-26 05:50:00,
2013-01-26 00:55:00,25.2,23.7,30.17,West,275,4.0,4.0,94,0.00,,,0.00,0,WeatherCatV1.10B1570,2013-01-26 05:55:00,
2013-01-26 01:00:00,25.2,23.7,30.17,West,274,0.0,3.0,94,0.00,,,0.00,0,WeatherCatV1.10B1570,2013-01-26 06:00:00,
2013-01-26 01:05:00,25.2,23.7,30.16,SW,218,2.0,4.0,94,0.00,,,0.00,0,WeatherCatV1.10B1570,2013-01-26 06:05:00,
2013-01-26 01:10:00,25.2,23.7,30.16,NW,312,0.0,1.0,94,0.00,,,0.00,0,WeatherCatV1.10B1570,2013-01-26 06:10:00,
2013-01-26 01:15:00,25.4,23.9,30.16,West,261,0.0,2.0,94,0.00,,,0.00,0,WeatherCatV1.10B1570,2013-01-26 06:15:00,
2013-01-26 01:20:00,25.3,23.8,30.16,WSW,239,1.0,5.0,94,0.00,,,0.00,0,WeatherCatV1.10B1570,2013-01-26 06:20:00,
2013-01-26 01:25:00,25.3,23.8,30.16,WSW,240,0.0,2.0,94,0.00,,,0.00,0,WeatherCatV1.10B1570,2013-01-26 06:25:00,
2013-01-26 01:30:00,25.4,23.9,30.16,West,274,1.0,3.0,94,0.00,,,0.00,0,WeatherCatV1.10B1570,2013-01-26 06:30:00,
2013-01-26 01:35:00,25.4,23.9,30.16,SW,216,2.0,4.0,94,0.00,,,0.00,0,WeatherCatV1.10B1570,2013-01-26 06:35:00,
2013-01-26 01:40:00,25.3,24.1,30.16,WSW,238,0.0,0.0,95,0.00,,,0.00,0,WeatherCatV1.10B1570,2013-01-26 06:40:00,
2013-01-26 01:45:00,25.3,24.1,30.16,West,267,1.0,3.0,95,0.00,,,0.00,0,WeatherCatV1.10B1570,2013-01-26 06:45:00,
2013-01-26 01:50:00,25.3,24.1,30.16,SW,230,0.0,2.0,95,0.00,,,0.00,0,WeatherCatV1.10B1570,2013-01-26 06:50:00,
2013-01-26 01:55:00,25.3,24.1,30.16,WNW,303,1.0,3.0,95,0.00,,,0.00,0,WeatherCatV1.10B1570,2013-01-26 06:55:00,
2013-01-26 02:00:00,25.4,24.2,30.16,WNW,303,0.0,2.0,95,0.00,,,0.00,0,WeatherCatV1.10B1570,2013-01-26 07:00:00,
2013-01-26 02:05:00,25.5,24.3,30.16,SSE,166,1.0,6.0,95,0.00,,,0.00,0,WeatherCatV1.10B1570,2013-01-26 07:05:00,
2013-01-26 02:10:00,25.6,24.4,30.16,West,261,2.0,6.0,95,0.00,,,0.00,0,WeatherCatV1.10B1570,2013-01-26 07:10:00,
2013-01-26 02:15:00,25.6,24.4,30.16,West,270,3.0,4.0,95,0.00,,,0.00,0,WeatherCatV1.10B1570,2013-01-26 07:15:00,
2013-01-26 02:20:00,25.5,24.3,30.16,West,275,1.0,4.0,95,0.00,,,0.00,0,WeatherCatV1.10B1570,2013-01-26 07:20:00,
2013-01-26 02:25:00,25.6,24.4,30.16,WNW,282,4.0,6.0,95,0.00,,,0.00,0,WeatherCatV1.10B1570,2013-01-26 07:25:00,
2013-01-26 02:30:00,25.6,24.4,30.16,West,276,1.0,3.0,95,0.00,,,0.00,0,WeatherCatV1.10B1570,2013-01-26 07:30:00,
2013-01-26 02:35:00,25.5,24.3,30.16,WSW,251,3.0,5.0,95,0.00,,,0.00,0,WeatherCatV1.10B1570,2013-01-26 07:35:00,
2013-01-26 02:40:00,25.5,24.3,30.16,WSW,246,3.0,8.0,95,0.00,,,0.00,0,WeatherCatV1.10B1570,2013-01-26 07:40:00,
2013-01-26 02:45:00,25.5,24.3,30.16,West,262,1.0,1.0,95,0.00,,,0.00,0,WeatherCatV1.10B1570,2013-01-26 07:45:00,
2013-01-26 02:50:00,25.5,24.3,30.16,SSW,211,1.0,3.0,95,0.00,,,0.00,0,WeatherCatV1.10B1570,2013-01-26 07:50:00,
2013-01-26 02:55:00,25.5,24.3,30.16,West,280,0.0,5.0,95,0.00,,,0.00,0,WeatherCatV1.10B1570,2013-01-26 07:55:00,
2013-01-26 03:00:00,25.5,24.3,30.16,WNW,282,3.0,3.0,95,0.00,,,0.00,0,WeatherCatV1.10B1570,2013-01-26 08:00:00,
2013-01-26 03:05:00,25.4,24.2,30.16,WSW,244,1.0,2.0,95,0.00,,,0.00,0,WeatherCatV1.10B1570,2013-01-26 08:05:00,
2013-01-26 03:10:00,25.2,23.2,30.18,WSW,237,2.0,4.0,92,0.00,,,0.00,0,WeatherCatV1.10B1570,2013-01-26 08:10:00,
2013-01-26 03:15:00,24.3,21.5,30.18,SSW,202,4.0,7.0,89,0.00,,,0.00,0,WeatherCatV1.10B1570,2013-01-26 08:15:00,
2013-01-26 03:20:00,24.3,21.5,30.18,SSW,202,4.0,7.0,89,0.00,,,0.00,0,WeatherCatV1.10B1570,2013-01-26 08:20:00,
2013-01-26 03:25:00,24.3,21.5,30.18,SSW,202,4.0,7.0,89,0.00,,,0.00,0,WeatherCatV1.10B1570,2013-01-26 08:25:00,
2013-01-26 03:30:00,24.3,21.5,30.18,SSW,202,4.0,7.0,89,0.00,,,0.00,0,WeatherCatV1.10B1570,2013-01-26 08:30:00,
2013-01-26 03:35:00,24.3,21.5,30.18,SSW,202,4.0,7.0,89,0.00,,,0.00,0,WeatherCatV1.10B1570,2013-01-26 08:35:00,
2013-01-26 03:40:00,24.3,21.5,30.18,SSW,202,4.0,7.0,89,0.00,,,0.00,0,WeatherCatV1.10B1570,2013-01-26 08:40:00,
2013-01-26 03:45:00,24.3,21.5,30.18,SSW,202,4.0,7.0,89,0.00,,,0.00,0,WeatherCatV1.10B1570,2013-01-26 08:45:00,
2013-01-26 03:50:00,24.3,21.5,30.18,SSW,202,4.0,7.0,89,0.00,,,0.00,0,WeatherCatV1.10B1570,2013-01-26 08:50:00,
2013-01-26 03:55:00,24.3,21.5,30.18,SSW,202,4.0,7.0,89,0.00,,,0.00,0,WeatherCatV1.10B1570,2013-01-26 08:55:00,
2013-01-26 04:00:00,24.3,21.5,30.18,SSW,202,4.0,7.0,89,0.00,,,0.00,0,WeatherCatV1.10B1570,2013-01-26 09:00:00,
2013-01-26 04:05:00,24.3,21.5,30.18,SSW,202,4.0,7.0,89,0.00,,,0.00,0,WeatherCatV1.10B1570,2013-01-26 09:05:00,
2013-01-26 04:10:00,24.3,21.5,30.18,SSW,202,4.0,7.0,89,0.00,,,0.00,0,WeatherCatV1.10B1570,2013-01-26 09:10:00,
2013-01-26 04:15:00,24.3,21.5,30.18,SSW,202,4.0,7.0,89,0.00,,,0.00,0,WeatherCatV1.10B1570,2013-01-26 09:15:00,
2013-01-26 04:20:00,24.3,21.5,30.18,SSW,202,4.0,7.0,89,0.00,,,0.00,0,WeatherCatV1.10B1570,2013-01-26 09:20:00,
2013-01-26 04:25:00,24.3,21.5,30.18,SSW,202,4.0,7.0,89,0.00,,,0.00,0,WeatherCatV1.10B1570,2013-01-26 09:25:00,
2013-01-26 04:30:00,24.3,21.5,30.18,SSW,202,4.0,7.0,89,0.00,,,0.00,0,WeatherCatV1.10B1570,2013-01-26 09:30:00,
2013-01-26 04:35:00,24.3,21.5,30.18,SSW,202,4.0,7.0,89,0.00,,,0.00,0,WeatherCatV1.10B1570,2013-01-26 09:35:00,
2013-01-26 04:40:00,24.3,21.5,30.18,SSW,202,4.0,7.0,89,0.00,,,0.00,0,WeatherCatV1.10B1570,2013-01-26 09:40:00,
2013-01-26 04:45:00,24.3,21.5,30.18,SSW,202,4.0,7.0,89,0.00,,,0.00,0,WeatherCatV1.10B1570,2013-01-26 09:45:00,
2013-01-26 04:50:00,24.3,21.5,30.18,SSW,202,4.0,7.0,89,0.00,,,0.00,0,WeatherCatV1.10B1570,2013-01-26 09:50:00,
2013-01-26 04:55:00,24.3,21.5,30.18,SSW,202,4.0,7.0,89,0.00,,,0.00,0,WeatherCatV1.10B1570,2013-01-26 09:55:00,
2013-01-26 05:00:00,24.3,21.5,30.18,SSW,202,4.0,7.0,89,0.00,,,0.00,0,WeatherCatV1.10B1570,2013-01-26 10:00:00,
2013-01-26 05:05:00,24.3,21.5,30.18,SSW,202,4.0,7.0,89,0.00,,,0.00,0,WeatherCatV1.10B1570,2013-01-26 10:05:00,
2013-01-26 05:10:00,24.3,21.5,30.18,SSW,202,4.0,7.0,89,0.00,,,0.00,0,WeatherCatV1.10B1570,2013-01-26 10:10:00,
2013-01-26 05:15:00,24.3,21.5,30.18,SSW,202,4.0,7.0,89,0.00,,,0.00,0,WeatherCatV1.10B1570,2013-01-26 10:15:00,
2013-01-26 05:20:00,24.3,21.5,30.18,SSW,202,4.0,7.0,89,0.00,,,0.00,0,WeatherCatV1.10B1570,2013-01-26 10:20:00,
2013-01-26 05:25:00,24.3,21.5,30.18,SSW,202,4.0,7.0,89,0.00,,,0.00,0,WeatherCatV1.10B1570,2013-01-26 10:25:00,
2013-01-26 05:30:00,24.3,21.5,30.18,SSW,202,4.0,7.0,89,0.00,,,0.00,0,WeatherCatV1.10B1570,2013-01-26 10:30:00,
2013-01-26 05:35:00,24.3,21.5,30.18,SSW,202,4.0,7.0,89,0.00,,,0.00,0,WeatherCatV1.10B1570,2013-01-26 10:35:00,
2013-01-26 05:40:00,24.3,21.5,30.18,SSW,202,4.0,7.0,89,0.00,,,0.00,0,WeatherCatV1.10B1570,2013-01-26 10:40:00,
2013-01-26 05:45:00,24.3,21.5,30.18,SSW,202,4.0,7.0,89,0.00,,,0.00,0,WeatherCatV1.10B1570,2013-01-26 10:45:00,
2013-01-26 05:50:00,24.3,21.5,30.18,SSW,202,4.0,7.0,89,0.00,,,0.00,0,WeatherCatV1.10B1570,2013-01-26 10:50:00,
2013-01-26 05:55:00,24.3,21.5,30.18,SSW,202,4.0,7.0,89,0.00,,,0.00,0,WeatherCatV1.10B1570,2013-01-26 10:55:00,
2013-01-26 06:00:00,24.3,21.5,30.18,SSW,202,4.0,7.0,89,0.00,,,0.00,0,WeatherCatV1.10B1570,2013-01-26 11:00:00,
2013-01-26 06:05:00,24.3,21.5,30.18,SSW,202,4.0,7.0,89,0.00,,,0.00,0,WeatherCatV1.10B1570,2013-01-26 11:05:00,
2013-01-26 06:10:00,24.3,21.5,30.18,SSW,202,4.0,7.0,89,0.00,,,0.00,0,WeatherCatV1.10B1570,2013-01-26 11:10:00,
2013-01-26 06:15:00,24.3,21.5,30.18,SSW,202,4.0,7.0,89,0.00,,,0.00,0,WeatherCatV1.10B1570,2013-01-26 11:15:00,
2013-01-26 06:20:00,24.3,21.5,30.18,SSW,202,4.0,7.0,89,0.00,,,0.00,0,WeatherCatV1.10B1570,2013-01-26 11:20:00,
2013-01-26 06:25:00,24.3,21.5,30.18,SSW,202,4.0,7.0,89,0.00,,,0.00,0,WeatherCatV1.10B1570,2013-01-26 11:25:00,
2013-01-26 06:30:00,24.3,21.5,30.18,SSW,202,4.0,7.0,89,0.00,,,0.00,0,WeatherCatV1.10B1570,2013-01-26 11:30:00,
2013-01-26 06:35:00,24.3,21.5,30.18,SSW,202,4.0,7.0,89,0.00,,,0.00,0,WeatherCatV1.10B1570,2013-01-26 11:35:00,
2013-01-26 06:40:00,24.3,21.5,30.18,SSW,202,4.0,7.0,89,0.00,,,0.00,0,WeatherCatV1.10B1570,2013-01-26 11:40:00,
2013-01-26 06:45:00,24.3,21.5,30.18,SSW,202,4.0,7.0,89,0.00,,,0.00,0,WeatherCatV1.10B1570,2013-01-26 11:45:00,
2013-01-26 06:50:00,24.3,21.5,30.18,SSW,202,4.0,7.0,89,0.00,,,0.00,0,WeatherCatV1.10B1570,2013-01-26 11:50:00,
2013-01-26 06:55:00,24.3,21.5,30.18,SSW,202,4.0,7.0,89,0.00,,,0.00,0,WeatherCatV1.10B1570,2013-01-26 11:55:00,
2013-01-26 07:00:00,24.3,21.5,30.18,SSW,202,4.0,7.0,89,0.00,,,0.00,0,WeatherCatV1.10B1570,2013-01-26 12:00:00,
2013-01-26 07:05:00,24.3,21.5,30.18,SSW,202,4.0,7.0,89,0.00,,,0.00,0,WeatherCatV1.10B1570,2013-01-26 12:05:00,
2013-01-26 07:10:00,24.3,21.5,30.18,SSW,202,4.0,7.0,89,0.00,,,0.00,0,WeatherCatV1.10B1570,2013-01-26 12:10:00,
2013-01-26 07:15:00,24.3,21.5,30.18,SSW,202,4.0,7.0,89,0.00,,,0.00,0,WeatherCatV1.10B1570,2013-01-26 12:15:00,
2013-01-26 07:20:00,24.3,21.5,30.18,SSW,202,4.0,7.0,89,0.00,,,0.00,0,WeatherCatV1.10B1570,2013-01-26 12:20:00,
2013-01-26 07:25:00,24.3,21.5,30.18,SSW,202,4.0,7.0,89,0.00,,,0.00,0,WeatherCatV1.10B1570,2013-01-26 12:25:00,
2013-01-26 07:30:00,24.3,21.5,30.18,SSW,202,4.0,7.0,89,0.00,,,0.00,0,WeatherCatV1.10B1570,2013-01-26 12:30:00,
2013-01-26 07:35:00,24.3,21.5,30.18,SSW,202,4.0,7.0,89,0.00,,,0.00,0,WeatherCatV1.10B1570,2013-01-26 12:35:00,
2013-01-26 07:40:00,24.3,21.5,30.18,SSW,202,4.0,7.0,89,0.00,,,0.00,0,WeatherCatV1.10B1570,2013-01-26 12:40:00,
2013-01-26 07:45:00,24.3,21.5,30.18,SSW,202,4.0,7.0,89,0.00,,,0.00,0,WeatherCatV1.10B1570,2013-01-26 12:45:00,
2013-01-26 07:50:00,24.3,21.5,30.18,SSW,202,4.0,7.0,89,0.00,,,0.00,0,WeatherCatV1.10B1570,2013-01-26 12:50:00,
2013-01-26 07:55:00,24.3,21.5,30.18,SSW,202,4.0,7.0,89,0.00,,,0.00,0,WeatherCatV1.10B1570,2013-01-26 12:55:00,
2013-01-26 08:00:00,24.3,21.5,30.18,SSW,202,4.0,7.0,89,0.00,,,0.00,0,WeatherCatV1.10B1570,2013-01-26 13:00:00,
2013-01-26 08:05:00,24.3,21.5,30.18,SSW,202,4.0,7.0,89,0.00,,,0.00,0,WeatherCatV1.10B1570,2013-01-26 13:05:00,
2013-01-26 08:10:00,24.3,21.5,30.18,SSW,202,4.0,7.0,89,0.00,,,0.00,0,WeatherCatV1.10B1570,2013-01-26 13:10:00,
2013-01-26 08:15:00,24.3,21.5,30.18,SSW,202,4.0,7.0,89,0.00,,,0.00,0,WeatherCatV1.10B1570,2013-01-26 13:15:00,
2013-01-26 08:20:00,24.3,21.5,30.18,SSW,202,4.0,7.0,89,0.00,,,0.00,0,WeatherCatV1.10B1570,2013-01-26 13:20:00,
2013-01-26 08:25:00,24.3,21.5,30.18,SSW,202,4.0,7.0,89,0.00,,,0.00,0,WeatherCatV1.10B1570,2013-01-26 13:25:00,
2013-01-26 08:30:00,24.3,21.5,30.18,SSW,202,4.0,7.0,89,0.00,,,0.00,0,WeatherCatV1.10B1570,2013-01-26 13:30:00,
2013-01-26 08:35:00,24.3,21.5,30.18,SSW,202,4.0,7.0,89,0.00,,,0.00,0,WeatherCatV1.10B1570,2013-01-26 13:35:00,
2013-01-26 08:40:00,24.3,21.5,30.18,SSW,202,4.0,7.0,89,0.00,,,0.00,0,WeatherCatV1.10B1570,2013-01-26 13:40:00,
2013-01-26 08:45:00,24.3,21.5,30.18,SSW,202,4.0,7.0,89,0.00,,,0.00,0,WeatherCatV1.10B1570,2013-01-26 13:45:00,
2013-01-26 08:50:00,24.3,21.5,30.18,SSW,202,4.0,7.0,89,0.00,,,0.00,0,WeatherCatV1.10B1570,2013-01-26 13:50:00,
2013-01-26 08:55:00,24.3,21.5,30.18,SSW,202,4.0,7.0,89,0.00,,,0.00,0,WeatherCatV1.10B1570,2013-01-26 13:55:00,
2013-01-26 09:00:00,24.3,21.5,30.18,SSW,202,4.0,7.0,89,0.00,,,0.00,0,WeatherCatV1.10B1570,2013-01-26 14:00:00,
2013-01-26 09:05:00,24.3,21.5,30.18,SSW,202,4.0,7.0,89,0.00,,,0.00,0,WeatherCatV1.10B1570,2013-01-26 14:05:00,
2013-01-26 09:10:00,24.3,21.5,30.18,SSW,202,4.0,7.0,89,0.00,,,0.00,0,WeatherCatV1.10B1570,2013-01-26 14:10:00,
2013-01-26 09:15:00,24.3,21.5,30.18,SSW,202,4.0,7.0,89,0.00,,,0.00,0,WeatherCatV1.10B1570,2013-01-26 14:15:00,
2013-01-26 09:20:00,24.3,21.5,30.18,SSW,202,4.0,7.0,89,0.00,,,0.00,0,WeatherCatV1.10B1570,2013-01-26 14:20:00,
2013-01-26 09:25:00,24.3,21.5,30.18,SSW,202,4.0,7.0,89,0.00,,,0.00,0,WeatherCatV1.10B1570,2013-01-26 14:25:00,
2013-01-26 09:30:00,24.3,21.5,30.18,SSW,202,4.0,7.0,89,0.00,,,0.00,0,WeatherCatV1.10B1570,2013-01-26 14:30:00,
2013-01-26 09:35:00,24.3,21.5,30.18,SSW,202,4.0,7.0,89,0.00,,,0.00,0,WeatherCatV1.10B1570,2013-01-26 14:35:00,
2013-01-26 09:40:00,24.3,21.5,30.18,SSW,202,4.0,7.0,89,0.00,,,0.00,0,WeatherCatV1.10B1570,2013-01-26 14:40:00,
2013-01-26 09:45:00,24.3,21.5,30.18,SSW,202,4.0,7.0,89,0.00,,,0.00,0,WeatherCatV1.10B1570,2013-01-26 14:45:00,
2013-01-26 09:50:00,24.3,21.5,30.18,SSW,202,4.0,7.0,89,0.00,,,0.00,0,WeatherCatV1.10B1570,2013-01-26 14:50:00,
2013-01-26 09:55:00,24.3,21.5,30.18,SSW,202,4.0,7.0,89,0.00,,,0.00,0,WeatherCatV1.10B1570,2013-01-26 14:55:00,
2013-01-26 10:00:00,24.3,21.5,30.18,SSW,202,4.0,7.0,89,0.00,,,0.00,0,WeatherCatV1.10B1570,2013-01-26 15:00:00,
2013-01-26 10:05:00,24.3,21.5,30.18,SSW,202,4.0,7.0,89,0.00,,,0.00,0,WeatherCatV1.10B1570,2013-01-26 15:05:00,
2013-01-26 10:10:00,24.3,21.5,30.18,SSW,202,4.0,7.0,89,0.00,,,0.00,0,WeatherCatV1.10B1570,2013-01-26 15:10:00,
2013-01-26 10:15:00,24.3,21.5,30.18,SSW,202,4.0,7.0,89,0.00,,,0.00,0,WeatherCatV1.10B1570,2013-01-26 15:15:00,
2013-01-26 10:20:00,24.3,21.5,30.18,SSW,202,4.0,7.0,89,0.00,,,0.00,0,WeatherCatV1.10B1570,2013-01-26 15:20:00,
2013-01-26 10:25:00,24.3,21.5,30.18,SSW,202,4.0,7.0,89,0.00,,,0.00,0,WeatherCatV1.10B1570,2013-01-26 15:25:00,
2013-01-26 10:30:00,24.3,21.5,30.18,SSW,202,4.0,7.0,89,0.00,,,0.00,0,WeatherCatV1.10B1570,2013-01-26 15:30:00,
2013-01-26 10:35:00,24.3,21.5,30.18,SSW,202,4.0,7.0,89,0.00,,,0.00,0,WeatherCatV1.10B1570,2013-01-26 15:35:00,
2013-01-26 10:40:00,24.3,21.5,30.18,SSW,202,4.0,7.0,89,0.00,,,0.00,0,WeatherCatV1.10B1570,2013-01-26 15:40:00,
2013-01-26 10:45:00,24.3,21.5,30.18,SSW,202,4.0,7.0,89,0.00,,,0.00,0,WeatherCatV1.10B1570,2013-01-26 15:45:00,
2013-01-26 10:50:00,24.3,21.5,30.18,SSW,202,4.0,7.0,89,0.00,,,0.00,0,WeatherCatV1.10B1570,2013-01-26 15:50:00,
2013-01-26 10:55:00,24.3,21.5,30.18,SSW,202,4.0,7.0,89,0.00,,,0.00,0,WeatherCatV1.10B1570,2013-01-26 15:55:00,
2013-01-26 11:00:00,24.3,21.5,30.18,SSW,202,4.0,7.0,89,0.00,,,0.00,0,WeatherCatV1.10B1570,2013-01-26 16:00:00,
2013-01-26 11:05:00,24.3,21.5,30.18,SSW,202,4.0,7.0,89,0.00,,,0.00,0,WeatherCatV1.10B1570,2013-01-26 16:05:00,
2013-01-26 11:10:00,24.3,21.5,30.18,SSW,202,4.0,7.0,89,0.00,,,0.00,0,WeatherCatV1.10B1570,2013-01-26 16:10:00,
2013-01-26 11:15:00,24.3,21.5,30.18,SSW,202,4.0,7.0,89,0.00,,,0.00,0,WeatherCatV1.10B1570,2013-01-26 16:15:00,
2013-01-26 11:20:00,24.3,21.5,30.18,SSW,202,4.0,7.0,89,0.00,,,0.00,0,WeatherCatV1.10B1570,2013-01-26 16:20:00,
2013-01-26 11:25:00,24.3,21.5,30.18,SSW,202,4.0,7.0,89,0.00,,,0.00,0,WeatherCatV1.10B1570,2013-01-26 16:25:00,
2013-01-26 11:30:00,24.3,21.5,30.18,SSW,202,4.0,7.0,89,0.00,,,0.00,0,WeatherCatV1.10B1570,2013-01-26 16:30:00,
2013-01-26 11:35:00,24.3,21.5,30.18,SSW,202,4.0,7.0,89,0.00,,,0.00,0,WeatherCatV1.10B1570,2013-01-26 16:35:00,
2013-01-26 11:40:00,24.3,21.5,30.18,SSW,202,4.0,7.0,89,0.00,,,0.00,0,WeatherCatV1.10B1570,2013-01-26 16:40:00,
2013-01-26 11:45:00,24.3,21.5,30.18,SSW,202,4.0,7.0,89,0.00,,,0.00,0,WeatherCatV1.10B1570,2013-01-26 16:45:00,
2013-01-26 11:50:00,24.3,21.5,30.18,SSW,202,4.0,7.0,89,0.00,,,0.00,0,WeatherCatV1.10B1570,2013-01-26 16:50:00,
2013-01-26 11:55:00,24.3,21.5,30.18,SSW,202,4.0,7.0,89,0.00,,,0.00,0,WeatherCatV1.10B1570,2013-01-26 16:55:00,
2013-01-26 12:00:00,24.3,21.5,30.18,SSW,202,4.0,7.0,89,0.00,,,0.00,0,WeatherCatV1.10B1570,2013-01-26 17:00:00,
2013-01-26 12:05:00,24.3,21.5,30.18,SSW,202,4.0,7.0,89,0.00,,,0.00,0,WeatherCatV1.10B1570,2013-01-26 17:05:00,
2013-01-26 12:10:00,24.3,21.5,30.18,SSW,202,4.0,7.0,89,0.00,,,0.00,0,WeatherCatV1.10B1570,2013-01-26 17:10:00,
2013-01-26 12:15:00,24.3,21.5,30.18,SSW,202,4.0,7.0,89,0.00,,,0.00,0,WeatherCatV1.10B1570,2013-01-26 17:15:00,
2013-01-26 12:20:00,24.3,21.5,30.18,SSW,202,4.0,7.0,89,0.00,,,0.00,0,WeatherCatV1.10B1570,2013-01-26 17:20:00,
2013-01-26 12:25:00,24.3,21.5,30.18,SSW,202,4.0,7.0,89,0.00,,,0.00,0,WeatherCatV1.10B1570,2013-01-26 17:25:00,
2013-01-26 12:30:00,24.3,21.5,30.18,SSW,202,4.0,7.0,89,0.00,,,0.00,0,WeatherCatV1.10B1570,2013-01-26 17:30:00,
2013-01-26 12:35:00,24.3,21.5,30.18,SSW,202,4.0,7.0,89,0.00,,,0.00,0,WeatherCatV1.10B1570,2013-01-26 17:35:00,
2013-01-26 12:40:00,24.3,21.5,30.18,SSW,202,4.0,7.0,89,0.00,,,0.00,0,WeatherCatV1.10B1570,2013-01-26 17:40:00,
2013-01-26 12:45:00,24.3,21.5,30.18,SSW,202,4.0,7.0,89,0.00,,,0.00,0,WeatherCatV1.10B1570,2013-01-26 17:45:00,
2013-01-26 12:50:00,24.3,21.5,30.18,SSW,202,4.0,7.0,89,0.00,,,0.00,0,WeatherCatV1.10B1570,2013-01-26 17:50:00,
2013-01-26 12:55:00,24.3,21.5,30.18,SSW,202,4.0,7.0,89,0.00,,,0.00,0,WeatherCatV1.10B1570,2013-01-26 17:55:00,
2013-01-26 13:00:00,24.3,21.5,30.18,SSW,202,4.0,7.0,89,0.00,,,0.00,0,WeatherCatV1.10B1570,2013-01-26 18:00:00,
2013-01-26 13:05:00,24.3,21.5,30.18,SSW,202,4.0,7.0,89,0.00,,,0.00,0,WeatherCatV1.10B1570,2013-01-26 18:05:00,
2013-01-26 13:10:00,24.3,21.5,30.18,SSW,202,4.0,7.0,89,0.00,,,0.00,0,WeatherCatV1.10B1570,2013-01-26 18:10:00,
2013-01-26 13:15:00,24.3,21.5,30.18,SSW,202,4.0,7.0,89,0.00,,,0.00,0,WeatherCatV1.10B1570,2013-01-26 18:15:00,
2013-01-26 13:20:00,24.3,21.5,30.18,SSW,202,4.0,7.0,89,0.00,,,0.00,0,WeatherCatV1.10B1570,2013-01-26 18:20:00,
2013-01-26 13:25:00,24.3,21.5,30.18,SSW,202,4.0,7.0,89,0.00,,,0.00,0,WeatherCatV1.10B1570,2013-01-26 18:25:00,
2013-01-26 13:30:00,24.3,21.5,30.18,SSW,202,4.0,7.0,89,0.00,,,0.00,0,WeatherCatV1.10B1570,2013-01-26 18:30:00,
2013-01-26 13:35:00,24.3,21.5,30.18,SSW,202,4.0,7.0,89,0.00,,,0.00,0,WeatherCatV1.10B1570,2013-01-26 18:35:00,
2013-01-26 13:40:00,24.3,21.5,30.18,SSW,202,4.0,7.0,89,0.00,,,0.00,0,WeatherCatV1.10B1570,2013-01-26 18:40:00,
2013-01-26 13:45:00,24.3,21.5,30.18,SSW,202,4.0,7.0,89,0.00,,,0.00,0,WeatherCatV1.10B1570,2013-01-26 18:45:00,
2013-01-26 13:50:00,24.3,21.5,30.18,SSW,202,4.0,7.0,89,0.00,,,0.00,0,WeatherCatV1.10B1570,2013-01-26 18:50:00,
2013-01-26 13:55:00,24.3,21.5,30.18,SSW,202,4.0,7.0,89,0.00,,,0.00,0,WeatherCatV1.10B1570,2013-01-26 18:55:00,
2013-01-26 14:00:00,24.3,21.5,30.18,SSW,202,4.0,7.0,89,0.00,,,0.00,0,WeatherCatV1.10B1570,2013-01-26 19:00:00,
2013-01-26 14:05:00,24.3,21.5,30.18,SSW,202,4.0,7.0,89,0.00,,,0.00,0,WeatherCatV1.10B1570,2013-01-26 19:05:00,
2013-01-26 14:10:00,24.3,21.5,30.18,SSW,202,4.0,7.0,89,0.00,,,0.00,0,WeatherCatV1.10B1570,2013-01-26 19:10:00,
2013-01-26 14:15:00,24.3,21.5,30.18,SSW,202,4.0,7.0,89,0.00,,,0.00,0,WeatherCatV1.10B1570,2013-01-26 19:15:00,
2013-01-26 14:20:00,24.3,21.5,30.18,SSW,202,4.0,7.0,89,0.00,,,0.00,0,WeatherCatV1.10B1570,2013-01-26 19:20:00,
2013-01-26 14:25:00,24.3,21.5,30.18,SSW,202,4.0,7.0,89,0.00,,,0.00,0,WeatherCatV1.10B1570,2013-01-26 19:25:00,
2013-01-26 14:30:00,24.3,21.5,30.18,SSW,202,4.0,7.0,89,0.00,,,0.00,0,WeatherCatV1.10B1570,2013-01-26 19:30:00,
2013-01-26 14:35:00,24.3,21.5,30.18,SSW,202,4.0,7.0,89,0.00,,,0.00,0,WeatherCatV1.10B1570,2013-01-26 19:35:00,
2013-01-26 14:40:00,24.3,21.5,30.18,SSW,202,4.0,7.0,89,0.00,,,0.00,0,WeatherCatV1.10B1570,2013-01-26 19:40:00,
2013-01-26 14:45:00,24.3,21.5,30.18,SSW,202,4.0,7.0,89,0.00,,,0.00,0,WeatherCatV1.10B1570,2013-01-26 19:45:00,
2013-01-26 14:50:00,24.3,21.5,30.18,SSW,202,4.0,7.0,89,0.00,,,0.00,0,WeatherCatV1.10B1570,2013-01-26 19:50:00,
2013-01-26 14:55:00,24.3,21.5,30.18,SSW,202,4.0,7.0,89,0.00,,,0.00,0,WeatherCatV1.10B1570,2013-01-26 19:55:00,
2013-01-26 15:00:00,24.3,21.5,30.18,SSW,202,4.0,7.0,89,0.00,,,0.00,0,WeatherCatV1.10B1570,2013-01-26 20:00:00,
2013-01-26 15:05:00,24.3,21.5,30.18,SSW,202,4.0,7.0,89,0.00,,,0.00,0,WeatherCatV1.10B1570,2013-01-26 20:05:00,
2013-01-26 15:10:00,24.3,21.5,30.18,SSW,202,4.0,7.0,89,0.00,,,0.00,0,WeatherCatV1.10B1570,2013-01-26 20:10:00,
2013-01-26 15:15:00,24.3,21.5,30.18,SSW,202,4.0,7.0,89,0.00,,,0.00,0,WeatherCatV1.10B1570,2013-01-26 20:15:00,
2013-01-26 15:20:00,24.3,21.5,30.18,SSW,202,4.0,7.0,89,0.00,,,0.00,0,WeatherCatV1.10B1570,2013-01-26 20:20:00,
2013-01-26 15:25:00,24.3,21.5,30.18,SSW,202,4.0,7.0,89,0.00,,,0.00,0,WeatherCatV1.10B1570,2013-01-26 20:25:00,
2013-01-26 15:30:00,24.3,21.5,30.18,SSW,202,4.0,7.0,89,0.00,,,0.00,0,WeatherCatV1.10B1570,2013-01-26 20:30:00,
2013-01-26 15:35:00,24.3,21.5,30.18,SSW,202,4.0,7.0,89,0.00,,,0.00,0,WeatherCatV1.10B1570,2013-01-26 20:35:00,
2013-01-26 15:40:00,24.3,21.5,30.18,SSW,202,4.0,7.0,89,0.00,,,0.00,0,WeatherCatV1.10B1570,2013-01-26 20:40:00,
2013-01-26 15:45:00,24.3,21.5,30.18,SSW,202,4.0,7.0,89,0.00,,,0.00,0,WeatherCatV1.10B1570,2013-01-26 20:45:00,
2013-01-26 15:50:00,24.3,21.5,30.18,SSW,202,4.0,7.0,89,0.00,,,0.00,0,WeatherCatV1.10B1570,2013-01-26 20:50:00,
2013-01-26 15:55:00,24.3,21.5,30.18,SSW,202,4.0,7.0,89,0.00,,,0.00,0,WeatherCatV1.10B1570,2013-01-26 20:55:00,
2013-01-26 16:00:00,24.3,21.5,30.18,SSW,202,4.0,7.0,89,0.00,,,0.00,0,WeatherCatV1.10B1570,2013-01-26 21:00:00,
2013-01-26 16:05:00,24.3,21.5,30.18,SSW,202,4.0,7.0,89,0.00,,,0.00,0,WeatherCatV1.10B1570,2013-01-26 21:05:00,
2013-01-26 16:10:00,38.2,30.3,30.29,SE,135,0.0,2.0,73,0.00,,,0.00,135,WeatherCatV1.10B1570,2013-01-26 21:10:00,
2013-01-26 16:15:00,37.9,29.0,30.29,SE,135,2.0,3.0,70,0.00,,,0.00,144,WeatherCatV1.10B1570,2013-01-26 21:15:00,
2013-01-26 16:18:00,24.3,21.5,30.18,SSW,202,4.0,7.0,89,0.00,,,0.00,0,WeatherCatV1.10B1570,2013-01-26 21:18:00,
2013-01-26 16:20:00,37.9,29.4,30.29,SE,135,1.0,2.0,71,0.00,,,0.00,116,WeatherCatV1.10B1570,2013-01-26 21:20:00,
2013-01-26 16:23:00,38.2,28.9,30.29,SE,143,0.0,1.0,69,0.00,,,0.10,95,WeatherCatV1.10B1570,2013-01-26 21:23:00,
2013-01-26 16:25:00,38.1,29.2,30.29,SE,135,0.0,0.0,70,0.00,,,0.00,112,WeatherCatV1.10B1570,2013-01-26 21:25:00,
2013-01-26 16:28:00,38.1,29.5,30.30,SE,143,0.0,0.0,71,0.00,,,0.10,93,WeatherCatV1.10B1570,2013-01-26 21:28:00,
2013-01-26 16:30:00,38.1,29.2,30.29,SE,135,0.0,1.0,70,0.00,,,0.00,101,WeatherCatV1.10B1570,2013-01-26 21:30:00,
2013-01-26 16:33:00,38.3,29.0,30.30,SE,143,0.0,0.0,69,0.00,,,0.10,90,WeatherCatV1.10B1570,2013-01-26 21:33:00,
2013-01-26 16:35:00,38.1,29.2,30.30,SE,135,0.0,0.0,70,0.00,,,0.00,94,WeatherCatV1.10B1570,2013-01-26 21:35:00,
2013-01-26 16:38:00,38.2,28.9,30.30,SE,143,0.0,0.0,69,0.00,,,0.10,79,WeatherCatV1.10B1570,2013-01-26 21:38:00,
2013-01-26 16:40:00,38.3,29.0,30.30,SE,135,0.0,0.0,69,0.00,,,0.00,89,WeatherCatV1.10B1570,2013-01-26 21:40:00,
2013-01-26 16:43:00,38.1,29.5,30.30,SE,143,0.0,0.0,71,0.00,,,0.10,79,WeatherCatV1.10B1570,2013-01-26 21:43:00,
2013-01-26 16:45:00,38.2,28.9,30.30,SE,135,0.0,0.0,69,0.00,,,0.00,83,WeatherCatV1.10B1570,2013-01-26 21:45:00,
2013-01-26 16:48:00,38.1,28.8,30.30,SE,143,0.0,0.0,69,0.00,,,0.10,65,WeatherCatV1.10B1570,2013-01-26 21:48:00,
2013-01-26 16:50:00,38.1,28.9,30.30,SE,135,0.0,0.0,69,0.00,,,0.00,79,WeatherCatV1.10B1570,2013-01-26 21:50:00,
2013-01-26 16:53:00,38.0,29.4,30.31,SE,143,0.0,0.0,71,0.00,,,0.10,54,WeatherCatV1.10B1570,2013-01-26 21:53:00,
2013-01-26 16:55:00,38.0,29.1,30.30,SE,135,0.0,0.0,70,0.00,,,0.00,67,WeatherCatV1.10B1570,2013-01-26 21:55:00,
2013-01-26 16:58:00,37.8,30.3,30.31,SE,143,2.0,2.0,74,0.00,,,0.10,46,WeatherCatV1.10B1570,2013-01-26 21:58:00,
2013-01-26 17:00:00,37.9,29.4,30.31,SE,135,0.0,1.0,71,0.00,,,0.00,55,WeatherCatV1.10B1570,2013-01-26 22:00:00,
2013-01-26 17:03:00,37.5,30.6,30.31,SE,143,0.0,0.0,76,0.00,,,0.10,35,WeatherCatV1.10B1570,2013-01-26 22:03:00,
2013-01-26 17:05:00,37.7,30.5,30.31,SE,135,1.0,2.0,75,0.00,,,0.00,46,WeatherCatV1.10B1570,2013-01-26 22:05:00,
2013-01-26 17:08:00,37.3,31.1,30.31,SE,135,2.0,3.0,78,0.00,,,0.10,25,WeatherCatV1.10B1570,2013-01-26 22:08:00,
2013-01-26 17:10:00,37.5,31.0,30.31,SE,135,0.0,1.0,77,0.00,,,0.00,36,WeatherCatV1.10B1570,2013-01-26 22:10:00,
2013-01-26 17:13:00,37.0,31.4,30.31,SE,135,0.0,1.0,80,0.00,,,0.10,23,WeatherCatV1.10B1570,2013-01-26 22:13:00,
2013-01-26 17:15:00,37.3,31.1,30.31,SE,135,1.0,3.0,78,0.00,,,0.00,26,WeatherCatV1.10B1570,2013-01-26 22:15:00,
2013-01-26 17:18:00,36.7,31.4,30.31,SE,135,0.0,0.0,81,0.00,,,0.10,19,WeatherCatV1.10B1570,2013-01-26 22:18:00,
2013-01-26 17:20:00,36.9,31.6,30.31,SE,135,1.0,2.0,81,0.00,,,0.00,24,WeatherCatV1.10B1570,2013-01-26 22:20:00,
2013-01-26 17:23:00,36.5,31.5,30.31,SE,135,0.0,0.0,82,0.00,,,0.10,12,WeatherCatV1.10B1570,2013-01-26 22:23:00,
2013-01-26 17:25:00,36.6,31.6,30.31,SE,135,0.0,1.0,82,0.00,,,0.00,19,WeatherCatV1.10B1570,2013-01-26 22:25:00,
2013-01-26 17:28:00,36.4,31.4,30.31,SE,135,0.0,0.0,82,0.00,,,0.10,7,WeatherCatV1.10B1570,2013-01-26 22:28:00,
2013-01-26 17:30:00,36.5,31.5,30.31,SE,135,0.0,0.0,82,0.00,,,0.00,13,WeatherCatV1.10B1570,2013-01-26 22:30:00,
2013-01-26 17:35:00,36.4,31.4,30.31,SE,135,0.0,0.0,82,0.00,,,0.00,8,WeatherCatV1.10B1570,2013-01-26 22:35:00,
2013-01-26 17:40:00,36.2,31.5,30.32,North,0,0.0,0.0,83,0.00,,,0.00,0,WeatherCatV1.10B1570,2013-01-26 22:40:00,
2013-01-26 17:42:00,36.1,31.4,30.32,SE,135,0.0,0.0,83,0.00,,,0.10,0,WeatherCatV1.10B1570,2013-01-26 22:42:00,
2013-01-26 17:45:00,35.8,31.4,30.32,SE,135,0.0,0.0,84,0.00,,,0.00,0,WeatherCatV1.10B1570,2013-01-26 22:45:00,
2013-01-26 17:50:00,35.5,31.2,30.32,SE,135,0.0,0.0,84,0.00,,,0.00,0,WeatherCatV1.10B1570,2013-01-26 22:50:00,
2013-01-26 17:55:00,35.5,31.4,30.32,SE,135,0.0,0.0,85,0.00,,,0.00,0,WeatherCatV1.10B1570,2013-01-26 22:55:00,
2013-01-26 17:59:00,35.5,31.2,30.32,SE,135,0.0,0.0,84,0.00,,,0.00,0,WeatherCatV1.10B1570,2013-01-26 22:59:00,
2013-01-26 18:00:00,35.3,31.2,30.33,SE,135,0.0,0.0,85,0.00,,,0.00,0,WeatherCatV1.10B1570,2013-01-26 23:00:00,
2013-01-26 18:04:00,35.2,31.2,30.33,SE,135,0.0,0.0,85,0.00,,,0.10,0,WeatherCatV1.10B1570,2013-01-26 23:04:00,
2013-01-26 18:05:00,35.0,31.0,30.33,SE,135,0.0,0.0,85,0.00,,,0.00,0,WeatherCatV1.10B1570,2013-01-26 23:05:00,
2013-01-26 18:09:00,34.6,31.1,30.33,SE,135,0.0,0.0,87,0.00,,,0.10,0,WeatherCatV1.10B1570,2013-01-26 23:09:00,
2013-01-26 18:10:00,34.5,31.0,30.33,SE,135,0.0,0.0,87,0.00,,,0.00,0,WeatherCatV1.10B1570,2013-01-26 23:10:00,
2013-01-26 18:14:00,34.3,30.8,30.33,SE,135,0.0,0.0,87,0.00,,,0.10,0,WeatherCatV1.10B1570,2013-01-26 23:14:00,
2013-01-26 18:15:00,34.2,30.7,30.33,SE,135,0.0,0.0,87,0.00,,,0.00,0,WeatherCatV1.10B1570,2013-01-26 23:15:00,
2013-01-26 18:19:00,34.2,30.7,30.33,SE,135,0.0,0.0,87,0.00,,,0.10,0,WeatherCatV1.10B1570,2013-01-26 23:19:00,
2013-01-26 18:20:00,34.1,30.6,30.33,SE,135,0.0,0.0,87,0.00,,,0.00,0,WeatherCatV1.10B1570,2013-01-26 23:20:00,
2013-01-26 18:24:00,33.8,30.6,30.33,SE,135,0.0,0.0,88,0.00,,,0.10,0,WeatherCatV1.10B1570,2013-01-26 23:24:00,
2013-01-26 18:25:00,33.8,30.6,30.33,SE,135,0.0,0.0,88,0.00,,,0.00,0,WeatherCatV1.10B1570,2013-01-26 23:25:00,
2013-01-26 18:29:00,33.5,30.3,30.34,SE,135,0.0,0.0,88,0.00,,,0.10,0,WeatherCatV1.10B1570,2013-01-26 23:29:00,
2013-01-26 18:30:00,33.4,30.5,30.34,SE,135,0.0,0.0,89,0.00,,,0.00,0,WeatherCatV1.10B1570,2013-01-26 23:30:00,
2013-01-26 18:34:00,33.0,30.1,30.34,SE,135,0.0,0.0,89,0.00,,,0.10,0,WeatherCatV1.10B1570,2013-01-26 23:34:00,
2013-01-26 18:35:00,32.9,30.3,30.34,SE,135,0.0,0.0,90,0.00,,,0.00,0,WeatherCatV1.10B1570,2013-01-26 23:35:00,
2013-01-26 18:39:00,32.8,30.2,30.34,SE,135,0.0,0.0,90,0.00,,,0.10,0,WeatherCatV1.10B1570,2013-01-26 23:39:00,
2013-01-26 18:40:00,32.8,30.2,30.34,SE,135,0.0,0.0,90,0.00,,,0.00,0,WeatherCatV1.10B1570,2013-01-26 23:40:00,
2013-01-26 18:44:00,33.0,30.4,30.34,SE,135,0.0,0.0,90,0.00,,,0.10,0,WeatherCatV1.10B1570,2013-01-26 23:44:00,
2013-01-26 18:45:00,32.9,30.0,30.34,SE,135,0.0,0.0,89,0.00,,,0.00,0,WeatherCatV1.10B1570,2013-01-26 23:45:00,
2013-01-26 18:49:00,32.7,30.1,30.35,SE,135,0.0,0.0,90,0.00,,,0.10,0,WeatherCatV1.10B1570,2013-01-26 23:49:00,
2013-01-26 18:50:00,32.6,30.0,30.34,SE,135,0.0,0.0,90,0.00,,,0.00,0,WeatherCatV1.10B1570,2013-01-26 23:50:00,
2013-01-26 18:54:00,32.2,29.6,30.35,SE,135,0.0,0.0,90,0.00,,,0.10,0,WeatherCatV1.10B1570,2013-01-26 23:54:00,
2013-01-26 18:55:00,32.0,29.7,30.34,SE,135,0.0,0.0,91,0.00,,,0.00,0,WeatherCatV1.10B1570,2013-01-26 23:55:00,
2013-01-26 18:59:00,31.8,29.7,30.34,SE,135,0.0,0.0,92,0.00,,,0.10,0,WeatherCatV1.10B1570,2013-01-26 23:59:00,
2013-01-26 19:00:00,31.7,29.4,30.34,SE,135,0.0,0.0,91,0.00,,,0.00,0,WeatherCatV1.10B1570,2013-01-27 00:00:00,
2013-01-26 19:04:00,31.7,29.6,30.34,SE,135,0.0,0.0,92,0.00,,,0.10,0,WeatherCatV1.10B1570,2013-01-27 00:04:00,
2013-01-26 19:05:00,31.7,29.6,30.34,SE,135,0.0,0.0,92,0.00,,,0.00,0,WeatherCatV1.10B1570,2013-01-27 00:05:00,
2013-01-26 19:09:00,31.5,29.4,30.35,SE,135,0.0,0.0,92,0.00,,,0.10,0,WeatherCatV1.10B1570,2013-01-27 00:09:00,
2013-01-26 19:10:00,31.5,29.4,30.35,SE,135,0.0,0.0,92,0.00,,,0.00,0,WeatherCatV1.10B1570,2013-01-27 00:10:00,
2013-01-26 19:14:00,31.5,29.7,30.35,SE,135,0.0,0.0,93,0.00,,,0.10,0,WeatherCatV1.10B1570,2013-01-27 00:14:00,
2013-01-26 19:15:00,31.5,29.7,30.35,SE,135,0.0,0.0,93,0.00,,,0.00,0,WeatherCatV1.10B1570,2013-01-27 00:15:00,
2013-01-26 19:19:00,31.5,29.7,30.35,SE,135,0.0,0.0,93,0.00,,,0.10,0,WeatherCatV1.10B1570,2013-01-27 00:19:00,
2013-01-26 19:20:00,31.5,29.7,30.35,SE,135,0.0,0.0,93,0.00,,,0.00,0,WeatherCatV1.10B1570,2013-01-27 00:20:00,
2013-01-26 19:24:00,32.2,30.4,30.35,SE,135,0.0,0.0,93,0.00,,,0.10,0,WeatherCatV1.10B1570,2013-01-27 00:24:00,
2013-01-26 19:25:00,32.2,30.4,30.35,SE,135,0.0,0.0,93,0.00,,,0.00,0,WeatherCatV1.10B1570,2013-01-27 00:25:00,
2013-01-26 19:29:00,31.8,29.5,30.36,SE,135,0.0,0.0,91,0.00,,,0.10,0,WeatherCatV1.10B1570,2013-01-27 00:29:00,
2013-01-26 19:30:00,31.8,29.5,30.35,SE,135,0.0,0.0,91,0.00,,,0.00,0,WeatherCatV1.10B1570,2013-01-27 00:30:00,
2013-01-26 19:34:00,31.4,29.4,30.36,SE,135,0.0,0.0,92,0.00,,,0.10,0,WeatherCatV1.10B1570,2013-01-27 00:34:00,
2013-01-26 19:35:00,31.5,29.7,30.36,SE,135,0.0,0.0,93,0.00,,,0.00,0,WeatherCatV1.10B1570,2013-01-27 00:35:00,
2013-01-26 19:39:00,31.6,29.8,30.36,SE,135,0.0,0.0,93,0.00,,,0.10,0,WeatherCatV1.10B1570,2013-01-27 00:39:00,
2013-01-26 19:40:00,31.7,29.9,30.36,SE,135,0.0,0.0,93,0.00,,,0.00,0,WeatherCatV1.10B1570,2013-01-27 00:40:00,
2013-01-26 19:44:00,31.6,29.5,30.36,SE,135,0.0,0.0,92,0.00,,,0.10,0,WeatherCatV1.10B1570,2013-01-27 00:44:00,
2013-01-26 19:45:00,31.6,29.6,30.36,SE,135,0.0,0.0,92,0.00,,,0.00,0,WeatherCatV1.10B1570,2013-01-27 00:45:00,
2013-01-26 19:49:00,31.7,29.6,30.36,SE,135,0.0,0.0,92,0.00,,,0.10,0,WeatherCatV1.10B1570,2013-01-27 00:49:00,
2013-01-26 19:50:00,31.7,29.6,30.36,SE,135,0.0,0.0,92,0.00,,,0.00,0,WeatherCatV1.10B1570,2013-01-27 00:50:00,
2013-01-26 19:54:00,31.3,29.5,30.36,SE,135,0.0,0.0,93,0.00,,,0.10,0,WeatherCatV1.10B1570,2013-01-27 00:54:00,
2013-01-26 19:55:00,31.3,29.5,30.36,SE,135,0.0,0.0,93,0.00,,,0.00,0,WeatherCatV1.10B1570,2013-01-27 00:55:00,
2013-01-26 19:59:00,31.4,29.6,30.36,SE,135,0.0,0.0,93,0.00,,,0.10,0,WeatherCatV1.10B1570,2013-01-27 00:59:00,
2013-01-26 20:00:00,31.5,29.7,30.36,SE,135,0.0,0.0,93,0.00,,,0.00,0,WeatherCatV1.10B1570,2013-01-27 01:00:00,
2013-01-26 20:04:00,31.4,29.6,30.36,SE,135,0.0,0.0,93,0.00,,,0.10,0,WeatherCatV1.10B1570,2013-01-27 01:04:00,
2013-01-26 20:05:00,31.4,29.6,30.36,SE,135,0.0,0.0,93,0.00,,,0.00,0,WeatherCatV1.10B1570,2013-01-27 01:05:00,
2013-01-26 20:09:00,31.1,29.3,30.36,SE,135,0.0,0.0,93,0.00,,,0.10,0,WeatherCatV1.10B1570,2013-01-27 01:09:00,
2013-01-26 20:10:00,31.1,29.3,30.36,SE,135,0.0,0.0,93,0.00,,,0.00,0,WeatherCatV1.10B1570,2013-01-27 01:10:00,
2013-01-26 20:14:00,30.8,29.0,30.37,SE,135,0.0,0.0,93,0.00,,,0.10,0,WeatherCatV1.10B1570,2013-01-27 01:14:00,
2013-01-26 20:15:00,30.8,29.0,30.37,SE,135,0.0,0.0,93,0.00,,,0.00,0,WeatherCatV1.10B1570,2013-01-27 01:15:00,
2013-01-26 20:19:00,30.6,28.8,30.37,SE,135,0.0,0.0,93,0.00,,,0.10,0,WeatherCatV1.10B1570,2013-01-27 01:19:00,
2013-01-26 20:20:00,30.5,28.7,30.37,SE,135,0.0,0.0,93,0.00,,,0.00,0,WeatherCatV1.10B1570,2013-01-27 01:20:00,
2013-01-26 20:25:00,30.0,28.5,30.37,SE,135,0.0,1.0,94,0.00,,,0.00,0,WeatherCatV1.10B1570,2013-01-27 01:25:00,
2013-01-26 20:30:00,29.9,28.1,30.37,SE,135,0.0,0.0,93,0.00,,,0.00,0,WeatherCatV1.10B1570,2013-01-27 01:30:00,
2013-01-26 20:35:00,30.1,28.6,30.37,SE,135,0.0,1.0,94,0.00,,,0.00,0,WeatherCatV1.10B1570,2013-01-27 01:35:00,
2013-01-26 20:40:00,29.7,28.2,30.37,SE,135,0.0,0.0,94,0.00,,,0.00,0,WeatherCatV1.10B1570,2013-01-27 01:40:00,
2013-01-26 20:45:00,29.6,28.1,30.38,SE,135,0.0,0.0,94,0.00,,,0.00,0,WeatherCatV1.10B1570,2013-01-27 01:45:00,
2013-01-26 20:50:00,29.6,28.1,30.38,SE,135,0.0,0.0,94,0.00,,,0.00,0,WeatherCatV1.10B1570,2013-01-27 01:50:00,
2013-01-26 20:55:00,29.7,28.5,30.38,SE,135,0.0,0.0,95,0.00,,,0.00,0,WeatherCatV1.10B1570,2013-01-27 01:55:00,
2013-01-26 21:00:00,29.7,28.4,30.39,North,0,0.0,0.0,95,0.00,,,0.00,0,WeatherCatV1.10B1570,2013-01-27 02:00:00,
2013-01-26 21:10:00,29.7,28.4,30.39,SE,135,0.0,0.0,95,0.00,,,0.00,0,WeatherCatV1.10B1570,2013-01-27 02:10:00,
2013-01-26 21:15:00,29.5,28.2,30.40,NNE,19,2.0,3.0,95,0.00,,,0.10,0,WeatherCatV1.10B1570,2013-01-27 02:15:00,
2013-01-26 21:20:00,29.6,28.3,30.40,North,7,1.0,1.0,95,0.00,,,0.10,0,WeatherCatV1.10B1570,2013-01-27 02:20:00,
2013-01-26 21:25:00,29.7,28.7,30.41,North,7,0.0,0.0,96,0.00,,,0.10,0,WeatherCatV1.10B1570,2013-01-27 02:25:00,
2013-01-26 21:30:00,29.8,28.8,30.41,North,7,0.0,1.0,96,0.00,,,0.10,0,WeatherCatV1.10B1570,2013-01-27 02:30:00,
2013-01-26 21:35:00,29.9,28.9,30.41,North,7,0.0,0.0,96,0.00,,,0.10,0,WeatherCatV1.10B1570,2013-01-27 02:35:00,
2013-01-26 21:40:00,30.1,29.1,30.41,North,7,0.0,0.0,96,0.00,,,0.10,0,WeatherCatV1.10B1570,2013-01-27 02:40:00,
2013-01-26 21:45:00,30.1,29.1,30.41,North,7,0.0,2.0,96,0.00,,,0.10,0,WeatherCatV1.10B1570,2013-01-27 02:45:00,
2013-01-26 21:50:00,30.0,28.7,30.42,North,7,1.0,2.0,95,0.00,,,0.10,0,WeatherCatV1.10B1570,2013-01-27 02:50:00,
2013-01-26 21:55:00,29.9,28.6,30.42,North,9,0.0,2.0,95,0.00,,,0.10,0,WeatherCatV1.10B1570,2013-01-27 02:55:00,
2013-01-26 22:00:00,30.0,28.2,30.42,North,2,2.0,3.0,93,0.00,,,0.10,0,WeatherCatV1.10B1570,2013-01-27 03:00:00,
2013-01-26 22:05:00,30.2,27.6,30.42,North,10,0.0,3.0,90,0.00,,,0.10,0,WeatherCatV1.10B1570,2013-01-27 03:05:00,
2013-01-26 22:10:00,30.3,27.2,30.42,NNE,15,2.0,3.0,88,0.00,,,0.10,0,WeatherCatV1.10B1570,2013-01-27 03:10:00,
2013-01-26 22:15:00,30.5,27.1,30.42,North,1,2.0,3.0,87,0.00,,,0.10,0,WeatherCatV1.10B1570,2013-01-27 03:15:00,
2013-01-26 22:20:00,30.5,26.5,30.43,NNE,14,1.0,4.0,85,0.00,,,0.10,0,WeatherCatV1.10B1570,2013-01-27 03:20:00,
2013-01-26 22:25:00,30.6,26.4,30.43,NE,52,2.0,3.0,84,0.00,,,0.10,0,WeatherCatV1.10B1570,2013-01-27 03:25:00,
2013-01-26 22:30:00,30.5,26.0,30.43,NNE,23,1.0,2.0,83,0.00,,,0.10,0,WeatherCatV1.10B1570,2013-01-27 03:30:00,
2013-01-26 22:35:00,30.6,25.8,30.43,North,9,1.0,2.0,82,0.00,,,0.10,0,WeatherCatV1.10B1570,2013-01-27 03:35:00,
2013-01-26 22:40:00,30.6,25.5,30.44,North,8,0.0,0.0,81,0.00,,,0.10,0,WeatherCatV1.10B1570,2013-01-27 03:40:00,
2013-01-26 22:45:00,30.7,25.3,30.44,North,9,0.0,0.0,80,0.00,,,0.10,0,WeatherCatV1.10B1570,2013-01-27 03:45:00,
2013-01-26 22:50:00,30.6,25.5,30.44,North,9,1.0,1.0,81,0.00,,,0.10,0,WeatherCatV1.10B1570,2013-01-27 03:50:00,
2013-01-26 22:55:00,30.1,25.3,30.45,East,85,4.0,4.0,82,0.00,,,0.10,0,WeatherCatV1.10B1570,2013-01-27 03:55:00,
2013-01-26 23:00:00,30.2,25.1,30.45,East,85,0.0,1.0,81,0.00,,,0.10,0,WeatherCatV1.10B1570,2013-01-27 04:00:00,
2013-01-26 23:05:00,30.3,24.9,30.45,NE,36,1.0,3.0,80,0.00,,,0.10,0,WeatherCatV1.10B1570,2013-01-27 04:05:00,
2013-01-26 23:10:00,30.2,24.8,30.46,NE,36,0.0,2.0,80,0.00,,,0.10,0,WeatherCatV1.10B1570,2013-01-27 04:10:00,
2013-01-26 23:15:00,30.2,24.5,30.46,NE,36,0.0,1.0,79,0.00,,,0.10,0,WeatherCatV1.10B1570,2013-01-27 04:15:00,
2013-01-26 23:20:00,30.3,24.6,30.47,NE,36,0.0,1.0,79,0.00,,,0.10,0,WeatherCatV1.10B1570,2013-01-27 04:20:00,
2013-01-26 23:25:00,30.2,24.5,30.46,NE,36,0.0,0.0,79,0.00,,,0.10,0,WeatherCatV1.10B1570,2013-01-27 04:25:00,
2013-01-26 23:30:00,30.1,24.4,30.46,NE,36,0.0,1.0,79,0.00,,,0.10,0,WeatherCatV1.10B1570,2013-01-27 04:30:00,
2013-01-26 23:35:00,29.8,24.1,30.46,NE,36,1.0,1.0,79,0.00,,,0.10,0,WeatherCatV1.10B1570,2013-01-27 04:35:00,
2013-01-26 23:40:00,29.6,23.9,30.46,NNE,22,2.0,2.0,79,0.00,,,0.10,0,WeatherCatV1.10B1570,2013-01-27 04:40:00,
2013-01-26 23:45:00,29.6,23.9,30.46,NNE,23,1.0,2.0,79,0.00,,,0.10,0,WeatherCatV1.10B1570,2013-01-27 04:45:00,
2013-01-26 23:50:00,29.6,23.9,30.46,North,359,2.0,3.0,79,0.00,,,0.10,0,WeatherCatV1.10B1570,2013-01-27 04:50:00,
2013-01-26 23:55:00,29.7,23.7,30.47,NNW,347,1.0,2.0,78,0.00,,,0.10,0,WeatherCatV1.10B1570,2013-01-27 04:55:00,